Regional Weather Roundup
Issued by NWS

Home | Current Version | Previous Version | Graphics & Text | Print | Product List | Glossary On
Versions: 1 2 3 4 5 6 7 8 9 10 11 12 13 14 15 16 17 18 19 20 21 22 23 24 25 26 27 28 29 30 31 32 33 34 35 36 37 38 39 40 41 42 43 44 45 46 47 48 49 50
000
ASUS43 KDTX 241101
RWRMI
MICHIGAN HOURLY REGIONAL WEATHER ROUNDUP
NATIONAL WEATHER SERVICE DETROIT/PONTIAC MI
600 AM EST TUE JAN 24 2017

NOTE: "FAIR" INDICATES FEW OR NO CLOUDS BELOW 12,000 FEET WITH NO
SIGNIFICANT WEATHER AND/OR OBSTRUCTION TO VISIBILITY.

MIZ047>049-052>055-059>063-066>070-074>076-081>083-241200-
SOUTHEAST LOWER MICHIGAN

CITY           SKY/WX    TMP DP  RH WIND       PRES   REMARKS
ADRIAN         CLOUDY    38  38 100 NW8       29.74S WCI  32
ALMA           LGT SNOW  37  36  99 W5        29.76R WCI  33
ANN ARBOR      CLOUDY    38  38 100 W7        29.72R FOG     WCI  33
BAD AXE        MIX PCPN  33  33 100 CALM      29.73S
CARO           LGT RAIN  34  34 100 CALM      29.72S
DETROIT CITY   CLOUDY    38  37  97 CALM      29.72S
DETROIT        LGT RAIN  39  38  96 S5        29.73S VSB 1/2
FLINT          LGT RAIN  35  35 100 W8        29.73R FOG     WCI  29
GROSSE ILE     CLOUDY    38  37  97 CALM      29.72R FOG
HILLSDALE      RAIN      36  36 100 NW7       29.73R WCI  30
HOWELL         RAIN      36  36  99 W6        29.72S WCI  31

CITY           SKY/WX    TMP DP  RH WIND       PRES   REMARKS
JACKSON        LGT RAIN  38  36  92 NW9       29.74S WCI  31
LAMBERTVILLE   DRIZZLE   39  38  94 CALM      29.73F
LANSING        LGT RAIN  37  35  92 NW7       29.76S FOG     WCI  32
LAPEER         DRZL/FOG  35  35 100 CALM      29.72R VSB 1/2
MASON          LGT RAIN  37  37 100 NW7       29.74S WCI  31
MONROE         DRIZZLE   38  38 100 S3        29.73R
MT. CLEMENS    LGT RAIN  37  37 100 CALM      29.70S FOG
PONTIAC        LGT RAIN  37  35  92 CALM      29.70R VSB 1/2
PORT HOPE        N/A     34  34 100 CALM      29.72S
PORT HURON     CLOUDY    34  34 100 CALM      29.72S FOG
TRI CITIES     FOG       36  36 100 NW6       29.75R VSB 1/2 WCI  31
MIDLAND        DRIZZLE   37  36  97 W5        29.75R WCI  33
TROY           LGT RAIN  38  37  96 CALM      29.73S
SAGINAW HB     LGT RAIN  36  34  93 W3        29.73S VSB 1
$$
MIZ043>046-050>051-056>058-064>065-071>073-077>080-241200-
SOUTHWEST LOWER MICHIGAN

CITY           SKY/WX    TMP DP  RH WIND       PRES   REMARKS
BATTLE CREEK   CLOUDY    38  38 100 NW10      29.77R FOG     WCI  31
BENTON HARBOR  CLOUDY    39  36  89 NW5       29.81S
BIG RAPIDS     CLOUDY    36  35  98 NW3       29.76S
COLDWATER      CLOUDY    39  39 100 NW8       29.76S FOG     WCI  34
FREMONT        CLOUDY    37  35  92 N7        29.78S WCI  31
HOLLAND        CLOUDY    38  36  92 NW8       29.80R WCI  32
GRAND RAPIDS   CLOUDY    38  36  92 NW9       29.77S WCI  31
IONIA          DRIZZLE   37  37 100 NW8       29.76S WCI  31
KALAMAZOO      CLOUDY    39  35  86 NW13G18   29.77S WCI  31
LUDINGTON      CLOUDY    35  35  98 NW3       29.79S
MARSHALL       DRIZZLE   39  38  97 NW5       29.75S
MOUNT PLEASANT LGT RAIN  36  36  99 CALM      29.75S
MUSKEGON       CLOUDY    38  35  89 N8        29.80S WCI  32
SOUTH HAVEN    CLOUDY    38  37  94 NW9       29.80S WCI  32
$$
MIZ016>042-241200-
NORTHERN LOWER MICHIGAN

CITY           SKY/WX    TMP DP  RH WIND       PRES   REMARKS
ALPENA         LGT RAIN  36  35  96 CALM      29.75F
BEAVER ISLAND  FOG       34  34 100 CALM      29.78R VSB 1/2
BELLAIRE       FOG       33  33 100 CALM      29.77R VSB 1/4
CADILLAC       FOG       35  34  96 NW5       29.74R VSB 3/4 WCI  31
CHARLEVOIX     CLOUDY    35  35 100 CALM      29.79S FOG
FRANKFORT      CLOUDY    37  36  97 N3        29.79R
GAYLORD        FOG       35  32  88 CALM      29.73R VSB 1
GRAYLING       CLOUDY    36  35  94 CALM      29.75R FOG
HARBOR SPRINGS CLOUDY    34  34 100 CALM      29.76R FOG
HOUGHTON LAKE  CLOUDY    34  33  96 W6        29.74R WCI  29
MANISTEE       CLOUDY    36  35  96 W6        29.78S WCI  31
OSCODA         MIX PCPN  35  35  97 CALM      29.73F
PELLSTON       LGT RAIN  34  32  92 CALM      29.76S VSB 1/2
ROGERS CITY    LGT SNOW  35  34  96 CALM      29.77S
TRAVERSE CITY  FOG       37  36  96 NW5       29.77R VSB 1/2 WCI  33
$$
MIZ007>008-015-241200-
EASTERN UPPER MICHIGAN

CITY           SKY/WX    TMP DP  RH WIND       PRES   REMARKS
KINROSS        FLURRIES  33  32  96 E6        29.77S WCI  28
MACKINAC ISLAN MIX PCPN  33  33 100 E8        29.76S WCI  26
NEWBERRY       FOG       32  31  97 CALM      29.77S VSB 1/2
S. S. MARIE    LGT SNOW  34  33  96 CALM      29.77S FOG
MUNISING         N/A     34  34 100 N7        29.79R WCI  28
$$
MIZ004>006-011>014-085-241200-
CENTRAL UPPER MICHIGAN

CITY           SKY/WX    TMP DP  RH WIND       PRES   REMARKS
MANISTIQUE     CLOUDY    32  32  99 CALM      29.78S FOG
ESCANABA       CLOUDY    34  34 100 NW5       29.79F WCI  30
SAWYER-GWINN   CLOUDY    33  32  99 CALM      29.79R
$$
MIZ001>003-009>011-084-241200-
WESTERN UPPER MICHIGAN

CITY           SKY/WX    TMP DP  RH WIND       PRES   REMARKS
IRON MOUNTAIN  CLOUDY    34  32  92 NW5       29.78R WCI  30
HOUGHTON       CLOUDY    34  32  92 NW8       29.79R WCI  27
COPPER HARBOR    N/A     34  34 100 N5        29.81R WCI  30
IRONWOOD       CLOUDY    33  32  96 SW5       29.83R WCI  29
$$

ABBREVIATIONS USED IN REMARKS
   TC - TEMPERATURE IN CELSIUS
  WCI - WIND CHILL INDEX
   HX - HEAT INDEX
  VSB - VISIBILITY





USA.gov is the U.S. government's official web portal to all federal, state and local government web resources and services.